[[{"header":{"parameterUnit":"m.s-1","parameterCategory":1,"la1":30.2991,"la2":30.254,"lo1":-89.0895,"lo2":-89.0444,"dy":0.0017,"dx":0.0017,"nx":28,"ny":28,"refTime":"2025-11-17T03:00:00:Z","depth":0,"parameterNumber":2,"parameterNumberName":"U-component_of_WINDS"},"data":[0,0,0,0,0,0,0,0,0,0,0,0,0,0,0,0,0,0,0,0,0,0,0,0,0,0,0,0,0,0,0,0,0,0,0,0,0,0,0,0,0,0,0,0,0,0,0,0,0,0,0,0,0,0,0,0,0,0,2.2428,2.2428,0,2.2451,2.2451,2.2451,2.2386,2.2384,2.2382,2.238,2.2407,2.241,2.2413,0,0,0,0,0,0,0,0,0,0,0,0,0,2.2333,2.2335,2.2428,2.2428,2.2428,2.2451,2.2451,2.2451,2.2386,2.2384,2.2381,2.2379,2.2407,2.241,2.2413,0,0,0,0,0,0,0,0,0,0,0,0,0,2.2367,2.2335,2.2428,2.2398,2.2396,2.2451,2.2451,2.2451,2.2387,2.2383,2.238,2.2378,2.2406,2.2409,2.2413,2.2499,0,0,2.2425,2.2427,0,0,0,0,0,0,0,0,2.2365,2.237,2.2402,2.2401,2.2398,2.2412,2.2428,2.2468,2.2387,2.239,2.238,2.2376,2.2412,2.2415,2.2426,2.25,2.2501,2.2426,2.2428,2.243,2.2431,0,0,0,0,0,0,0,2.2363,2.2369,2.2437,2.2403,2.24,2.2386,2.2387,2.2435,2.2418,2.239,2.2385,2.2388,2.241,2.2423,2.2426,2.2502,2.2426,2.2429,2.2432,2.2433,2.265,2.2653,0,0,0,0,0,0,2.2363,2.2367,2.2436,2.2438,2.2373,2.239,2.2392,2.2411,2.2417,2.2415,2.2391,2.2385,2.2417,2.2422,2.2427,2.253,2.243,2.2434,2.2436,2.2647,2.2651,2.2654,0,0,0,0,0,0,2.2362,2.237,2.2435,2.2401,2.2408,2.2395,2.2417,2.2413,2.2425,2.2418,2.2415,2.2407,2.2415,2.2422,2.2482,2.253,2.2435,2.2439,2.2643,2.2648,2.2652,2.2734,0,0,0,0,0,0,2.2359,2.237,2.2401,2.2402,2.2411,2.2488,2.242,2.2415,2.2432,2.2424,2.2432,2.243,2.2413,2.2476,2.2486,2.2533,2.2442,2.2638,2.2645,2.2651,2.2727,2.2741,2.2754,0,0,0,0,0,2.2356,2.2423,2.2403,2.2411,2.2449,2.2491,2.2496,2.2473,2.2436,2.2468,2.2464,2.243,2.2522,2.2483,2.2493,2.2543,2.2635,2.2643,2.265,2.2721,2.2739,2.2753,0,0,0,0,0,0,2.2429,2.2423,2.24,2.247,2.2481,2.248,2.252,2.2492,2.2516,2.2508,2.2481,2.2483,2.2549,2.2551,2.2508,2.2627,2.2573,2.2583,2.2623,2.264,2.2652,2.2651,2.2445,0,0,0,0,0,2.2453,2.2486,2.248,2.2542,2.2549,2.2534,2.2551,2.2533,2.2544,2.2549,2.2549,2.2563,2.2595,2.2617,2.2646,2.2727,2.2729,2.2766,2.2779,2.279,2.28,2.2845,2.2862,2.2679,2.2679,2.2679,0,0,2.2503,2.2504,2.2527,2.2557,2.2563,2.2601,2.2538,2.2579,2.2608,2.2556,2.2613,2.2614,2.2628,2.2699,2.273,2.2703,2.2851,2.28,2.2809,2.2812,2.2855,2.2872,2.2887,2.2684,2.2684,2.2683,0,0,2.2614,2.2617,2.267,2.2678,2.2689,2.2679,2.2692,2.2695,2.2693,2.275,2.2713,2.2746,2.2802,2.2814,2.2827,2.2945,2.2916,2.2955,2.3025,2.3069,2.3083,2.3096,2.314,2.3156,2.2964,2.2964,2.2964,0,2.2675,2.2728,2.2701,2.2746,2.2761,2.2715,2.277,2.278,2.2801,2.2813,2.2782,2.2852,2.2858,2.2932,2.2961,2.2973,2.2989,2.2954,2.3083,2.3096,2.3107,2.3149,2.3165,2.2969,2.2969,2.2968,2.2968,0,2.2804,2.2842,2.2884,2.2904,2.2924,2.2974,2.2956,2.298,2.2961,2.2954,2.3014,2.3019,2.305,2.3066,2.3047,2.3139,2.3122,2.3087,2.3032,2.313,2.3169,2.3184,2.2976,2.2974,2.2973,2.2972,0,0,2.2961,2.2967,2.2983,2.2993,2.3003,2.3032,2.3081,2.3109,2.3132,2.3148,2.3189,2.3238,2.3207,2.3222,2.3204,2.3243,2.3339,2.3204,2.3204,2.3231,2.3443,2.347,2.3489,2.3319,2.3322,2.3324,2.3442,0,2.3072,2.3154,2.3132,2.3215,2.3251,2.3209,2.3252,2.3263,2.3259,2.329,2.3286,2.3322,2.3276,2.3286,2.3322,2.3319,2.3381,2.331,2.336,2.3362,2.3359,2.3509,2.3537,2.3649,2.3457,2.346,2.3462,0,2.3212,2.3234,2.332,2.3326,2.334,2.3379,2.3405,2.3434,2.3447,2.3442,2.346,2.3435,2.3485,2.3429,2.3499,2.3451,2.347,2.3472,2.3476,2.3481,2.3419,2.352,2.3683,2.3701,2.3485,2.3483,2.3481,0,2.3321,2.3372,2.343,2.344,2.3447,2.3476,2.3481,2.349,2.351,2.3533,2.3546,2.3575,2.3591,2.3615,2.36,2.356,2.3674,2.3615,2.3672,2.3673,2.3699,2.3698,2.387,2.3709,2.3708,2.3708,2.3708,0,2.3448,2.3504,2.348,2.3516,2.3577,2.3552,2.3614,2.3614,2.3624,2.3661,2.3626,2.3662,2.3638,2.3673,2.3661,2.3723,2.373,2.3728,2.3725,2.3732,2.3733,2.3746,2.3738,2.3712,2.3711,2.3711,2.371,0,2.3581,2.3567,2.3628,2.363,2.3632,2.3678,2.368,2.3715,2.3708,2.3756,2.3766,2.3756,2.3795,2.3782,2.3823,2.3816,2.3894,2.388,2.389,2.3887,2.3945,2.3941,2.4133,2.4158,2.3979,2.398,2.3982,0,2.3663,2.3705,2.3712,2.3734,2.3741,2.3777,2.3796,2.3774,2.3796,2.3816,2.3849,2.3884,2.3912,2.3977,2.3974,2.4007,2.3994,2.4059,2.3999,2.4006,2.3998,2.3996,2.4001,2.4072,2.4074,2.4076,2.4077,0,2.3813,2.3804,2.3833,2.3861,2.3886,2.3907,2.3925,2.3945,2.3924,2.3951,2.399,2.4012,2.4054,2.4091,2.4121,2.4127,2.41,2.4096,2.4111,2.412,2.4125,2.4125,2.3925,2.4092,2.409,2.4089,2.4089,2.4088,2.3924,2.396,2.3971,2.4005,2.4017,2.4035,2.4068,2.4066,2.4097,2.413,2.4115,2.4161,2.4175,2.4212,2.4223,2.426,2.4235,2.4256,2.4262,2.4268,2.4277,2.4118,2.4265,2.4264,2.4264,2.4264,2.4263,0,2.4073,2.4079,2.4111,2.4137,2.4165,2.4135,2.4154,2.418,2.422,2.4235,2.4263,2.4309,2.4345,2.4346,2.438,2.441,2.4398,2.4419,2.4418,2.442,2.4296,2.428,2.4428,2.4428,2.4428,2.4428,2.4428,2.4428,2.4154,2.4214,2.4207,2.4273,2.4278,2.4322,2.4336,2.4353,2.4365,2.4418,2.4448,2.4447,2.4457,2.4492,2.4525,2.4524,2.4539,2.4566,2.4561,2.4445,2.4429,2.4413,2.4398,2.4569,2.4569,2.4682,2.4683,2.4684]},{"header":{"parameterUnit":"m.s-1","parameterCategory":1,"la1":30.2991,"la2":30.254,"lo1":-89.0895,"lo2":-89.0444,"dy":0.0017,"dx":0.0017,"nx":28,"ny":28,"refTime":"2025-11-17T03:00:00:Z","depth":0,"parameterNumber":3,"parameterNumberName":"V-component_of_WINDS"},"data":[0,0,0,0,0,0,0,0,0,0,0,0,0,0,0,0,0,0,0,0,0,0,0,0,0,0,0,0,0,0,0,0,0,0,0,0,0,0,0,0,0,0,0,0,0,0,0,0,0,0,0,0,0,0,0,0,0,0,2.2954,2.2956,0,2.3107,2.3109,2.3111,2.3108,2.3106,2.3104,2.3102,2.3258,2.3264,2.327,0,0,0,0,0,0,0,0,0,0,0,0,0,2.2655,2.2661,2.2954,2.2956,2.2958,2.3107,2.3109,2.3111,2.3109,2.3106,2.3103,2.3101,2.3256,2.3263,2.327,0,0,0,0,0,0,0,0,0,0,0,0,0,2.2794,2.2663,2.2954,2.2975,2.2978,2.3107,2.3109,2.3112,2.3109,2.3106,2.3103,2.31,2.3253,2.3262,2.3271,2.3389,0,0,2.3299,2.3303,0,0,0,0,0,0,0,0,2.2787,2.2805,2.297,2.2973,2.2977,2.3086,2.3061,2.3205,2.311,2.3059,2.3102,2.3098,2.3203,2.3216,2.3251,2.3396,2.3403,2.33,2.3305,2.3309,2.3312,0,0,0,0,0,0,0,2.2777,2.2799,2.3015,2.2972,2.2977,2.2975,2.2991,2.3088,2.3146,2.3063,2.3064,2.3082,2.3204,2.3243,2.3255,2.3405,2.33,2.3308,2.3313,2.3317,2.3649,2.3653,0,0,0,0,0,0,2.2763,2.2791,2.301,2.3019,2.2872,2.2983,2.3001,2.3054,2.3145,2.3156,2.3084,2.3081,2.3229,2.3244,2.3261,2.3401,2.3309,2.3318,2.3323,2.3646,2.365,2.3654,0,0,0,0,0,0,2.2757,2.2783,2.3004,2.2905,2.2933,2.2991,2.3051,2.3059,2.3097,2.3161,2.3171,2.3113,2.3227,2.3248,2.3356,2.3406,2.3322,2.333,2.3642,2.3647,2.3652,2.3685,0,0,0,0,0,0,2.2748,2.2781,2.2827,2.2906,2.2938,2.3098,2.3054,2.3064,2.3113,2.311,2.3191,2.3201,2.3226,2.3343,2.3365,2.3417,2.3337,2.3638,2.3644,2.365,2.3679,2.369,2.37,0,0,0,0,0,2.2738,2.2831,2.283,2.2856,2.2998,2.3101,2.3119,2.3146,2.3117,2.3163,2.3204,2.3199,2.3398,2.3354,2.3379,2.3435,2.3635,2.3642,2.365,2.3675,2.3688,2.3699,0,0,0,0,0,0,2.2757,2.2842,2.2841,2.2963,2.3025,2.31,2.316,2.316,2.3232,2.3226,2.3256,2.3274,2.3382,2.342,2.3369,2.3551,2.3512,2.3525,2.3522,2.3536,2.3546,2.3533,2.3345,0,0,0,0,0,2.2776,2.2853,2.2923,2.3024,2.3055,2.3102,2.3148,2.3163,2.3228,2.3254,2.3303,2.3365,2.3441,2.3491,2.3565,2.3685,2.37,2.3736,2.3746,2.3754,2.3764,2.3826,2.3841,2.3679,2.3679,2.3678,0,0,2.2815,2.2871,2.2918,2.3029,2.3078,2.3156,2.3124,2.3209,2.3266,2.3267,2.3371,2.3409,2.348,2.3594,2.3646,2.3628,2.3812,2.3763,2.3769,2.3775,2.3835,2.385,2.3864,2.3684,2.3683,2.3682,0,0,2.2925,2.2977,2.3064,2.3114,2.3188,2.3219,2.3239,2.3315,2.3339,2.3445,2.3445,2.3513,2.3645,2.3694,2.3737,2.3861,2.3858,2.3885,2.3937,2.3997,2.401,2.4021,2.4062,2.4076,2.3895,2.3895,2.3895,0,2.2964,2.3082,2.3109,2.3193,2.324,2.3244,2.3331,2.3378,2.3473,2.3505,2.3484,2.3646,2.3695,2.3817,2.3847,2.3883,2.3905,2.3875,2.4006,2.4017,2.4028,2.4067,2.4083,2.3898,2.3898,2.3897,2.3897,0,2.3124,2.3205,2.3267,2.3357,2.3412,2.3497,2.3535,2.3587,2.3596,2.3628,2.3732,2.3791,2.3874,2.3905,2.3916,2.4028,2.4014,2.4,2.396,2.4046,2.4083,2.4098,2.3901,2.3901,2.39,2.3899,0,0,2.3251,2.3353,2.3375,2.3414,2.3496,2.3559,2.3643,2.3724,2.3766,2.3831,2.3899,2.4009,2.3994,2.4042,2.4059,2.4111,2.4201,2.4089,2.4091,2.4105,2.4323,2.4332,2.4349,2.42,2.4203,2.4205,2.4316,0,2.3367,2.3517,2.3542,2.3672,2.3745,2.3748,2.3821,2.3877,2.3909,2.3974,2.4008,2.4084,2.4061,2.4089,2.4141,2.4179,2.4245,2.4172,2.4261,2.4264,2.4241,2.437,2.438,2.4482,2.4331,2.4334,2.4336,0,2.3523,2.359,2.3727,2.3794,2.3826,2.3891,2.3965,2.4029,2.4092,2.4111,2.4162,2.4172,2.4256,2.4214,2.4328,2.4278,2.4316,2.4339,2.4344,2.4352,2.4304,2.4378,2.4516,2.453,2.436,2.4358,2.4356,0,2.3597,2.3722,2.3819,2.3853,2.3936,2.398,2.4017,2.4077,2.4123,2.4187,2.4217,2.4291,2.4331,2.4387,2.4414,2.4382,2.4525,2.4487,2.454,2.454,2.4569,2.4567,2.4713,2.4598,2.4598,2.4598,2.4598,0,2.3722,2.3805,2.3853,2.3913,2.4004,2.4032,2.4121,2.4156,2.4209,2.4273,2.4281,2.4341,2.4375,2.444,2.4462,2.4551,2.457,2.4585,2.4589,2.4583,2.458,2.4607,2.4599,2.4602,2.4601,2.46,2.46,0,2.3821,2.3857,2.3962,2.4031,2.4049,2.4114,2.4171,2.4228,2.4258,2.4339,2.436,2.4406,2.4482,2.4515,2.4609,2.4624,2.4724,2.4725,2.4703,2.4704,2.4754,2.4748,2.492,2.4943,2.4816,2.4817,2.4818,0,2.3897,2.396,2.4035,2.4079,2.4116,2.4187,2.4233,2.4262,2.4309,2.4383,2.443,2.4506,2.4568,2.4688,2.4729,2.4799,2.48,2.4856,2.4811,2.4801,2.4797,2.4791,2.4796,2.4863,2.4864,2.4865,2.4866,0,2.4027,2.4041,2.4108,2.418,2.4235,2.4293,2.435,2.4385,2.4422,2.4475,2.4552,2.46,2.4694,2.4768,2.484,2.4876,2.4876,2.488,2.4895,2.4888,2.4871,2.4877,2.4722,2.4876,2.4875,2.4874,2.4874,2.4873,2.4115,2.4169,2.4229,2.4302,2.4348,2.44,2.4455,2.4491,2.4557,2.4635,2.4648,2.4729,2.4787,2.4884,2.4922,2.4984,2.497,2.4994,2.4999,2.5004,2.5005,2.4863,2.4998,2.4997,2.4997,2.4997,2.4997,0,2.4242,2.428,2.4347,2.4426,2.4482,2.4478,2.454,2.4587,2.4659,2.4713,2.4773,2.4859,2.493,2.4976,2.5046,2.5087,2.5089,2.5104,2.51,2.5108,2.5015,2.4993,2.5102,2.5102,2.5102,2.5102,2.5102,2.5102,2.4315,2.4406,2.4426,2.4539,2.4577,2.4656,2.4691,2.4738,2.4781,2.4877,2.4936,2.4965,2.5015,2.5089,2.5152,2.5164,2.5188,2.5204,2.5214,2.5126,2.5115,2.5104,2.5083,2.5209,2.521,2.5301,2.5302,2.5302]}]]